Home > Weather > Los Angeles > Past weeks

Flag for U.S.A. Weather for the Past 2 Weeks in Los Angeles, California, U.S.A.

Now
64 °F

Clear.


Feels Like: 64 °F
Forecast: 57 / 85 °F
Wind: No wind

Location: Los Angeles / USC Campus Downtown

Current Time: Feb 9, 2016 at 11:49:14 PM

Latest Report: Feb 9, 2016 at 10:47 PM


Visibility: 10 mi

Pressure: 30.09 "Hg

Humidity: 43%

Dew point: 41 °F

Location of Los AngelesLocation

Historic Weather in Los Angeles — Graph

°F

Los Angeles Temperature Yesterday

Maximum temperature yesterday: 88 °F (at 12:47 PM)
Minimum temperature yesterday: 53 °F (at 4:47 AM)
Average temperature yesterday: 70 °F

High & Low Weather Summary for the Past Weeks

 TemperatureHumidityPressure
High88 °F (Feb 8, 12:47 PM)97% (Jan 31, 10:47 AM)30.36 "Hg (Jan 31, 10:47 AM)
Low41 °F (Feb 2, 5:47 AM)9% (Feb 8, 1:47 PM)29.59 "Hg (Jan 31, 1:47 PM)
Average60 °F44%30.12 "Hg
* Reported Jan 25 10:47 PM — Feb 9 10:47 PM, Los Angeles, Weather by CustomWeather, © 2016

Note: Actual official high and low records may vary slightly from our data, if they occured in-between our weather recording intervals... More about our weather records

Advertising

Los Angeles Weather History for the Previous 24 Hours

 ConditionsComfort  
Time TempWeatherWind HumidityBarometerVisibility
10:47 PM
Tue, Feb 9
64 °FClear.No wind43%30.09 "Hg10 mi
9:47 PM65 °FClear.No wind40%30.09 "Hg10 mi
8:47 PM67 °FClear.No wind36%30.09 "Hg10 mi
7:47 PM71 °FClear.No wind29%30.08 "Hg10 mi
6:47 PM73 °FClear.No wind22%30.06 "Hg10 mi
5:47 PM77 °FClear.No wind18%30.06 "Hg10 mi
4:47 PM83 °FSunny.No wind15%30.06 "Hg10 mi
3:47 PM86 °FSunny.No wind13%30.04 "Hg10 mi
2:47 PM88 °FSunny.No wind10%30.03 "Hg10 mi
1:47 PM88 °FSunny.No wind11%30.04 "Hg10 mi
12:47 PM88 °FSunny.No wind10%30.07 "Hg10 mi
11:47 AM87 °FSunny.3 mph12%30.11 "Hg5 mi
10:47 AM83 °FSunny.No wind14%30.14 "Hg10 mi
9:47 AM80 °FSunny.No wind16%30.15 "Hg10 mi
8:47 AM71 °FSunny.3 mph22%30.16 "Hg10 mi
7:47 AM64 °FSunny.No wind28%30.15 "Hg10 mi
6:47 AM60 °FSunny.3 mph31%30.14 "Hg10 mi
5:47 AM57 °FClear.3 mph36%30.12 "Hg10 mi
4:47 AM58 °FClear.No wind33%30.11 "Hg10 mi
3:47 AM56 °FClear.3 mph40%30.10 "Hg10 mi
2:47 AM57 °FClear.No wind41%30.11 "Hg10 mi
1:47 AM59 °FClear.No wind35%30.10 "Hg10 mi
12:47 AM61 °FClear.No wind35%30.11 "Hg10 mi
11:47 PM
Mon, Feb 8
62 °FClear.No wind35%30.12 "Hg10 mi
Weather by CustomWeather, © 2016

See weather overviewHow to use our weather pages